Regional Weather Roundup
Issued by NWS

Home | Current Version | Previous Version | Graphics & Text | Print | Product List | Glossary On
Versions: 1 2 3 4 5 6 7 8 9 10 11 12 13 14 15 16 17 18 19 20 21 22 23 24 25 26 27 28 29 30 31 32 33 34 35 36 37 38 39 40 41 42 43 44 45 46 47 48 49 50
000
ASUS45 KCYS 232310
RWRWY

WYOMING REGIONAL WEATHER ROUNDUP
NATIONAL WEATHER SERVICE CHEYENNE WY
500 PM MDT TUE SEP 23 2014

NOTE:  "FAIR" INDICATES FEW OR NO CLOUDS BELOW 12,000 FEET
WITH NO SIGNIFICANT WEATHER AND/OR OBSTRUCTIONS TO VISIBILITY.

WYZ001-240000-
YELLOWSTONE NATIONAL PARK

CITY           SKY/WX    TMP DP  RH WIND       PRES   REMARKS
LK YELLOWSTONE   N/A     62  46  55 CALM      30.32F
W YELLOWSTONE  NOT AVBL

$$
WYZ002>013-054>058-071-098>099-240000-
NORTHERN WYOMING

CITY           SKY/WX    TMP DP  RH WIND       PRES   REMARKS
JACKSON        MOSUNNY   72  46  40 SW6       30.23F
CODY           SUNNY     79  43  27 N8        30.07F
GREYBULL       SUNNY     83  41  22 VRB5      30.00F
WORLAND        SUNNY     80  42  25 CALM      30.03S
SHERIDAN       MOSUNNY   82  46  28 N9        30.01S
BUFFALO        MOSUNNY   73  43  33 NW8       30.09R
GILLETTE       LGT RAIN  79  43  27 NW15      30.02R
HULETT         FAIR      79  45  29 MISG      30.01
NEWCASTLE      FAIR      79  39  24 NW9       30.00

$$
WYZ014>020-022>026-101>103-240000-
CENTRAL WYOMING

CITY           SKY/WX    TMP DP  RH WIND       PRES   REMARKS
BIG PINEY      MOSUNNY   72  38  29 N7        30.26S
PINEDALE       CLEAR     70  34  26 W16G23    30.27R
DUBOIS         FAIR      68  34  28 NW13      30.24R
LANDER         MOSUNNY   76  40  27 S3        30.11S
RIVERTON       MOSUNNY   76  37  24 E8        30.12S
CASPER         MOSUNNY   79  39  23 VRB6      30.10S
DOUGLAS        PTSUNNY   74  43  32 NW12      30.08R

$$
WYZ021-027>030-104>119-240000-
SOUTHERN WYOMING

CITY           SKY/WX    TMP DP  RH WIND       PRES   REMARKS
EVANSTON       MOSUNNY   71  40  32 W12G22    30.29S
KEMMERER       PTCLDY    70  36  28 W13G18    30.30S
FORT BRIDGER   FAIR      74  41  30 NW16G23   30.30S
ROCK SPRINGS   MOSUNNY   72  38  29 W17G26    30.24S
DIXON          FAIR      72  45  37 W10G17    30.26S
RAWLINS        MOSUNNY   72  37  28 W9        30.22S
SARATOGA       MOCLDY    70  39  32 W14G22    30.25S
LARAMIE        PTSUNNY   68  38  33 NW17G23   30.23S
CHEYENNE       CLOUDY    73  37  27 W15       30.16S
TORRINGTON     MOSUNNY   81  46  29 N12       30.00R
PINE BLUFFS    FAIR      79  36  21 NW21G26   30.09S

$$



USA.gov is the U.S. government's official web portal to all federal, state and local government web resources and services.